[[{"header":{"parameterUnit":"m.s-1","parameterCategory":2,"la1":30.2991,"la2":30.254,"lo1":-89.0895,"lo2":-89.0444,"dy":0.0017,"dx":0.0017,"nx":28,"ny":28,"refTime":"2024-12-18T09:00:00:Z","depth":"0","parameterNumber":2,"parameterNumberName":"U-component_of_CURRENTS"},"data":[0,0,0,0,0,0,0,0,0,0,0,0,0,0,0,0,0,0,0,0,0,0,0,0,0,0,0,0,0,0,0,0,0,0,0,0,0,0,0,0,0,0,0,0,0,0,0,0,0,0,0,0,0,0,0,0,0,0,-0.442,-0.442,0,-0.4342,-0.434,-0.4339,-0.4263,-0.4263,-0.4263,-0.4262,-0.4073,-0.4069,-0.4064,0,0,0,0,0,0,0,0,0,0,0,0,0,-0.4386,-0.4387,-0.442,-0.442,-0.4419,-0.4342,-0.434,-0.4339,-0.4263,-0.4263,-0.4263,-0.4262,-0.4075,-0.4069,-0.4063,0,0,0,0,0,0,0,0,0,0,0,0,0,-0.4357,-0.4387,-0.442,-0.4378,-0.4374,-0.4342,-0.434,-0.4338,-0.4263,-0.4263,-0.4262,-0.4262,-0.4077,-0.407,-0.4063,-0.4029,0,0,-0.4041,-0.4038,0,0,0,0,0,0,0,0,-0.4359,-0.4357,-0.4384,-0.4381,-0.4376,-0.4318,-0.4259,-0.4232,-0.4264,-0.4298,-0.4262,-0.4262,-0.415,-0.4137,-0.4114,-0.402,-0.4012,-0.404,-0.4036,-0.4033,-0.4031,0,0,0,0,0,0,0,-0.4361,-0.436,-0.4382,-0.4384,-0.4379,-0.4322,-0.4318,-0.4253,-0.422,-0.4295,-0.4291,-0.4294,-0.4146,-0.4122,-0.4109,-0.4009,-0.4041,-0.4034,-0.403,-0.4027,-0.388,-0.388,0,0,0,0,0,0,-0.4392,-0.4363,-0.4385,-0.438,-0.4374,-0.4324,-0.4319,-0.4331,-0.4223,-0.4209,-0.4294,-0.429,-0.4134,-0.4118,-0.4102,-0.4102,-0.4033,-0.4026,-0.4022,-0.388,-0.388,-0.388,0,0,0,0,0,0,-0.4392,-0.4395,-0.4388,-0.4374,-0.437,-0.4327,-0.434,-0.433,-0.4314,-0.4225,-0.4207,-0.429,-0.4133,-0.4112,-0.4058,-0.4092,-0.4023,-0.4017,-0.3879,-0.388,-0.388,-0.4071,0,0,0,0,0,0,-0.4391,-0.4396,-0.4405,-0.4377,-0.4373,-0.4399,-0.4341,-0.4329,-0.4319,-0.4314,-0.4215,-0.4197,-0.4131,-0.4069,-0.4051,-0.4081,-0.4011,-0.3879,-0.3879,-0.388,-0.4064,-0.4078,-0.4089,0,0,0,0,0,-0.439,-0.443,-0.4406,-0.4408,-0.4391,-0.4402,-0.4394,-0.4355,-0.432,-0.4332,-0.4256,-0.42,-0.406,-0.4064,-0.4042,-0.4071,-0.3878,-0.3879,-0.388,-0.4058,-0.4075,-0.4089,0,0,0,0,0,0,-0.4411,-0.4425,-0.4399,-0.4436,-0.4427,-0.4392,-0.4398,-0.4367,-0.4315,-0.4302,-0.4204,-0.4182,-0.4144,-0.4074,-0.4081,-0.4026,-0.396,-0.3956,-0.4103,-0.4117,-0.413,-0.4126,-0.4005,0,0,0,0,0,-0.4423,-0.4453,-0.4448,-0.4468,-0.4476,-0.4432,-0.4426,-0.4407,-0.4365,-0.4342,-0.4273,-0.4191,-0.4129,-0.4099,-0.4029,-0.4003,-0.3903,-0.4003,-0.4016,-0.4027,-0.4007,-0.3931,-0.3936,-0.3883,-0.3883,-0.3883,0,0,-0.4428,-0.4443,-0.4452,-0.4474,-0.4457,-0.4479,-0.4427,-0.4441,-0.4444,-0.4327,-0.4301,-0.4231,-0.4128,-0.4101,-0.4078,-0.4051,-0.3984,-0.4028,-0.404,-0.4011,-0.3933,-0.3938,-0.3943,-0.3883,-0.3883,-0.3883,0,0,-0.4468,-0.4476,-0.4515,-0.4526,-0.4535,-0.452,-0.4533,-0.4512,-0.4492,-0.4466,-0.438,-0.4339,-0.4236,-0.4188,-0.4143,-0.4179,-0.405,-0.415,-0.4221,-0.4151,-0.4155,-0.4157,-0.4019,-0.4007,-0.4165,-0.4165,-0.4165,0,-0.4462,-0.452,-0.4524,-0.4566,-0.4578,-0.4548,-0.4582,-0.4567,-0.4525,-0.4498,-0.4481,-0.4329,-0.4281,-0.4222,-0.425,-0.4214,-0.4113,-0.4185,-0.4171,-0.4171,-0.417,-0.4027,-0.4012,-0.4174,-0.4173,-0.4172,-0.4172,0,-0.4532,-0.4574,-0.4605,-0.4644,-0.4657,-0.4693,-0.4685,-0.4683,-0.4652,-0.461,-0.4548,-0.4475,-0.438,-0.4379,-0.4332,-0.43,-0.4207,-0.4198,-0.4144,-0.4188,-0.4033,-0.4014,-0.4188,-0.4184,-0.4182,-0.4179,0,0,-0.4511,-0.4631,-0.4635,-0.4662,-0.4707,-0.4717,-0.4746,-0.4739,-0.4707,-0.4681,-0.4621,-0.4581,-0.4518,-0.4462,-0.4401,-0.4362,-0.4307,-0.429,-0.4282,-0.4171,-0.4079,-0.393,-0.3892,-0.4295,-0.4293,-0.4292,-0.3967,0,-0.4549,-0.4664,-0.4703,-0.4764,-0.4813,-0.4809,-0.4814,-0.4798,-0.4759,-0.4695,-0.4636,-0.4547,-0.4555,-0.4496,-0.4476,-0.4334,-0.4266,-0.439,-0.4034,-0.4021,-0.3901,-0.3871,-0.3751,-0.3445,-0.3948,-0.3944,-0.3942,0,-0.4594,-0.4665,-0.4765,-0.4817,-0.4828,-0.4848,-0.4828,-0.4829,-0.4756,-0.4711,-0.4647,-0.4557,-0.4492,-0.4487,-0.4298,-0.4368,-0.4236,-0.4135,-0.412,-0.3894,-0.3837,-0.3482,-0.339,-0.3391,-0.3911,-0.3914,-0.3916,0,-0.4585,-0.4692,-0.4775,-0.4802,-0.486,-0.4869,-0.4872,-0.4825,-0.4753,-0.4698,-0.46,-0.4537,-0.4406,-0.4325,-0.4141,-0.4209,-0.3876,-0.3946,-0.3666,-0.365,-0.343,-0.3399,-0.331,-0.3783,-0.3784,-0.3785,-0.3786,0,-0.4626,-0.4672,-0.4775,-0.4815,-0.4811,-0.4865,-0.4802,-0.4802,-0.471,-0.4534,-0.4586,-0.4404,-0.4353,-0.4154,-0.4081,-0.3775,-0.3823,-0.3632,-0.3557,-0.3488,-0.3467,-0.3362,-0.3414,-0.3773,-0.3775,-0.3778,-0.378,0,-0.4604,-0.4698,-0.4756,-0.4827,-0.4815,-0.4808,-0.4715,-0.4593,-0.461,-0.4379,-0.4337,-0.4228,-0.3996,-0.3892,-0.3662,-0.3597,-0.3321,-0.3266,-0.3152,-0.3073,-0.2893,-0.2959,-0.2694,-0.2619,-0.2943,-0.2938,-0.2933,0,-0.4616,-0.4666,-0.4718,-0.4637,-0.4655,-0.4619,-0.4484,-0.4511,-0.4346,-0.4206,-0.402,-0.3824,-0.3573,-0.3249,-0.3119,-0.2912,-0.2982,-0.2679,-0.2831,-0.2822,-0.2843,-0.291,-0.2876,-0.2592,-0.2585,-0.258,-0.2575,0,-0.4562,-0.4586,-0.4579,-0.4442,-0.4322,-0.4193,-0.4049,-0.3946,-0.3867,-0.375,-0.349,-0.3341,-0.3033,-0.2784,-0.2571,-0.247,-0.2657,-0.255,-0.258,-0.2575,-0.2597,-0.2508,-0.284,-0.2523,-0.2528,-0.2532,-0.2535,-0.2537,-0.4418,-0.4378,-0.43,-0.4112,-0.3959,-0.371,-0.3539,-0.3394,-0.3206,-0.2936,-0.2981,-0.2727,-0.2581,-0.2299,-0.2184,-0.2048,-0.2176,-0.2057,-0.2129,-0.2191,-0.216,-0.2343,-0.1943,-0.1945,-0.1947,-0.1948,-0.1949,0,-0.4165,-0.4077,-0.391,-0.3657,-0.3333,-0.3381,-0.312,-0.2907,-0.2638,-0.2454,-0.228,-0.2164,-0.1976,-0.1914,-0.18,-0.1703,-0.172,-0.1692,-0.1814,-0.1795,-0.1954,-0.1987,-0.1532,-0.1532,-0.1532,-0.1532,-0.1532,-0.1532,-0.3988,-0.3759,-0.365,-0.3049,-0.2852,-0.2443,-0.2282,-0.2095,-0.1937,-0.1638,-0.154,-0.1476,-0.1632,-0.1794,-0.1694,-0.1605,-0.1629,-0.1531,-0.1595,-0.1806,-0.185,-0.1892,-0.1937,-0.1479,-0.1479,-0.1385,-0.1384,-0.1384]},{"header":{"parameterUnit":"m.s-1","parameterCategory":2,"la1":30.2991,"la2":30.254,"lo1":-89.0895,"lo2":-89.0444,"dy":0.0017,"dx":0.0017,"nx":28,"ny":28,"refTime":"2024-12-18T09:00:00:Z","depth":"0","parameterNumber":3,"parameterNumberName":"V-component_of_CURRENTS"},"data":[0,0,0,0,0,0,0,0,0,0,0,0,0,0,0,0,0,0,0,0,0,0,0,0,0,0,0,0,0,0,0,0,0,0,0,0,0,0,0,0,0,0,0,0,0,0,0,0,0,0,0,0,0,0,0,0,0,0,0.0272,0.0275,0,0.0463,0.0465,0.0467,0.0521,0.052,0.0519,0.0518,0.0733,0.0739,0.0746,0,0,0,0,0,0,0,0,0,0,0,0,0,0.0015,0.0019,0.0272,0.0275,0.0277,0.0462,0.0465,0.0467,0.0521,0.052,0.0519,0.0518,0.0731,0.0739,0.0747,0,0,0,0,0,0,0,0,0,0,0,0,0,0.0156,0.002,0.0272,0.0328,0.0335,0.0462,0.0465,0.0468,0.0521,0.052,0.0519,0.0518,0.0728,0.0738,0.0748,0.0835,0,0,0.0778,0.0782,0,0,0,0,0,0,0,0,0.0148,0.0165,0.0317,0.0324,0.0332,0.0468,0.0453,0.0592,0.0522,0.0449,0.0518,0.0517,0.0649,0.0665,0.0701,0.0845,0.0854,0.0779,0.0784,0.0789,0.0791,0,0,0,0,0,0,0,0.0138,0.0158,0.0346,0.032,0.0329,0.0364,0.0382,0.048,0.0553,0.0455,0.046,0.0484,0.0653,0.0692,0.0707,0.0857,0.0778,0.0787,0.0793,0.0797,0.1055,0.1056,0,0,0,0,0,0,0.0117,0.0149,0.034,0.0352,0.0237,0.0369,0.0389,0.0425,0.0552,0.057,0.0485,0.0486,0.0675,0.0695,0.0715,0.0774,0.0789,0.0798,0.0803,0.1054,0.1055,0.1056,0,0,0,0,0,0,0.0111,0.0133,0.0332,0.0255,0.0283,0.0375,0.0414,0.0429,0.0465,0.0575,0.0593,0.0505,0.0675,0.0701,0.0795,0.0784,0.0802,0.0811,0.1053,0.1055,0.1056,0.0926,0,0,0,0,0,0,0.0103,0.013,0.0144,0.0254,0.0286,0.0402,0.0416,0.0434,0.0483,0.0486,0.0598,0.0617,0.0676,0.078,0.0805,0.0798,0.0819,0.1052,0.1054,0.1055,0.0929,0.0923,0.0918,0,0,0,0,0,0.0093,0.0118,0.0143,0.0166,0.0304,0.0403,0.0422,0.0482,0.0485,0.0507,0.0576,0.0613,0.0808,0.079,0.0818,0.0814,0.1051,0.1053,0.1055,0.0932,0.0924,0.0918,0,0,0,0,0,0,0.0014,0.013,0.0159,0.0218,0.03,0.0412,0.0439,0.0481,0.0555,0.0551,0.064,0.0666,0.0748,0.081,0.0786,0.0897,0.0932,0.094,0.0828,0.0822,0.0816,0.0771,0.0827,0,0,0,0,0,0.0004,0.0051,0.0165,0.0209,0.0247,0.0341,0.0385,0.0429,0.0513,0.0543,0.0622,0.0704,0.0784,0.0821,0.0915,0.098,0.1016,0.0995,0.0989,0.0983,0.0969,0.0986,0.0978,0.1064,0.1064,0.1064,0,0,-0.0015,0.0055,0.0081,0.0195,0.0259,0.0298,0.0363,0.043,0.0452,0.0558,0.0612,0.0703,0.0805,0.0872,0.0912,0.0915,0.0988,0.0986,0.098,0.0969,0.0987,0.0978,0.097,0.1065,0.1065,0.1065,0,0,-0.0049,0.0033,0.0046,0.0111,0.0206,0.0272,0.0286,0.0399,0.0438,0.0521,0.0587,0.0666,0.0801,0.0853,0.0898,0.0924,0.097,0.0955,0.0872,0.0887,0.0879,0.0872,0.093,0.0929,0.0933,0.0933,0.0933,0,-0.009,-0.0051,0.0065,0.0087,0.0117,0.0248,0.0247,0.0326,0.045,0.0469,0.052,0.0686,0.0785,0.083,0.0842,0.0906,0.0931,0.0879,0.0873,0.0866,0.0861,0.0923,0.0923,0.0927,0.0927,0.0928,0.0929,0,-0.0121,-0.0094,-0.0078,-0.0015,0.0042,0.0073,0.0185,0.0241,0.031,0.0377,0.046,0.0599,0.0677,0.0731,0.0802,0.0812,0.0851,0.087,0.0871,0.0843,0.0913,0.0915,0.0918,0.092,0.0922,0.0924,0,0,-0.0234,-0.0129,-0.0134,-0.0136,-0.002,0.0017,0.0066,0.0134,0.0142,0.0277,0.0285,0.0447,0.0513,0.057,0.0665,0.0695,0.0715,0.0754,0.0758,0.078,0.0767,0.0807,0.0816,0.0709,0.0709,0.0708,0.0837,0,-0.0319,-0.0324,-0.0239,-0.0257,-0.0257,-0.0134,-0.0102,-0.0019,0.0074,0.0132,0.0265,0.0335,0.0451,0.0487,0.0534,0.0692,0.0712,0.068,0.082,0.0826,0.0836,0.0816,0.0867,0.0985,0.084,0.0841,0.0841,0,-0.0413,-0.0401,-0.0437,-0.0397,-0.0387,-0.0369,-0.0319,-0.0267,-0.0144,-0.0073,0.001,0.0133,0.0245,0.0331,0.0524,0.0491,0.0604,0.0715,0.0722,0.08,0.0869,0.099,0.0996,0.1171,0.0846,0.0846,0.0845,0,-0.0585,-0.0557,-0.06,-0.0582,-0.0497,-0.0502,-0.0457,-0.0349,-0.0313,-0.021,-0.0167,-0.0029,0.0078,0.021,0.0483,0.0483,0.0693,0.0718,0.0851,0.0858,0.0952,0.0967,0.1112,0.0787,0.0786,0.0786,0.0785,0,-0.0725,-0.0763,-0.0683,-0.0705,-0.0758,-0.0648,-0.0674,-0.0603,-0.0499,-0.0446,-0.0294,-0.0202,0.0048,0.0227,0.042,0.0669,0.0637,0.0834,0.0879,0.0916,0.0925,0.1123,0.1185,0.0791,0.079,0.0789,0.0788,0,-0.0906,-0.0851,-0.09,-0.0848,-0.0836,-0.0876,-0.0804,-0.0793,-0.0686,-0.061,-0.0579,-0.0325,-0.0068,0.0181,0.0461,0.0614,0.0936,0.09,0.0955,0.1002,0.1266,0.1318,0.1487,0.1597,0.1056,0.1057,0.1059,0,-0.0998,-0.1036,-0.1029,-0.1045,-0.1023,-0.1038,-0.1022,-0.0913,-0.0869,-0.0651,-0.0608,-0.0352,-0.0112,0.0311,0.0606,0.0906,0.1035,0.1096,0.1092,0.128,0.1372,0.1403,0.1486,0.1195,0.1197,0.1199,0.12,0,-0.1168,-0.1158,-0.1182,-0.1213,-0.1217,-0.1223,-0.118,-0.1163,-0.0983,-0.0827,-0.0563,-0.0357,0.0043,0.0449,0.0798,0.0979,0.1223,0.1141,0.1316,0.1466,0.153,0.1658,0.1143,0.1217,0.1216,0.1214,0.1213,0.1213,-0.1284,-0.1341,-0.134,-0.1363,-0.1367,-0.1344,-0.1319,-0.116,-0.1,-0.0598,-0.0483,0.0017,0.0326,0.0858,0.1043,0.1434,0.1385,0.1563,0.161,0.1624,0.1722,0.1252,0.1376,0.1375,0.1375,0.1374,0.1374,0,-0.1402,-0.1423,-0.1464,-0.1465,-0.1465,-0.1435,-0.1354,-0.1194,-0.0888,-0.0396,-0.0019,0.0562,0.0952,0.1279,0.169,0.19,0.1953,0.2008,0.2082,0.2143,0.1727,0.1725,0.1954,0.1954,0.1954,0.1954,0.1953,0.1953,-0.1459,-0.1515,-0.1507,-0.1514,-0.1503,-0.1441,-0.1372,-0.1004,-0.0617,0.0199,0.0789,0.115,0.144,0.1913,0.2304,0.2346,0.2549,0.2512,0.2617,0.235,0.2313,0.2277,0.2293,0.2637,0.2638,0.3045,0.3049,0.3052]}],[{"header":{"parameterUnit":"m.s-1","parameterCategory":2,"la1":30.2991,"la2":30.254,"lo1":-89.0895,"lo2":-89.0444,"dy":0.0017,"dx":0.0017,"nx":28,"ny":28,"refTime":"2024-12-18T09:00:00:Z","depth":"2","parameterNumber":2,"parameterNumberName":"U-component_of_CURRENTS"},"data":[0,0,0,0,0,0,0,0,0,0,0,0,0,0,0,0,0,0,0,0,0,0,0,0,0,0,0,0,0,0,0,0,0,0,0,0,0,0,0,0,0,0,0,0,0,0,0,0,0,0,0,0,0,0,0,0,0,0,-0.2699,-0.27,0,-0.2802,-0.2803,-0.2804,-0.2776,-0.2774,-0.2772,-0.2771,-0.2755,-0.2757,-0.2758,0,0,0,0,0,0,0,0,0,0,0,0,0,-0.252,-0.2523,-0.2699,-0.27,-0.2702,-0.2801,-0.2803,-0.2804,-0.2776,-0.2774,-0.2772,-0.277,-0.2755,-0.2757,-0.2758,0,0,0,0,0,0,0,0,0,0,0,0,0,-0.2606,-0.2524,-0.2699,-0.2701,-0.2703,-0.2801,-0.2803,-0.2804,-0.2777,-0.2774,-0.2771,-0.2769,-0.2755,-0.2756,-0.2758,-0.2828,0,0,-0.2765,-0.2766,0,0,0,0,0,0,0,0,-0.2601,-0.2612,-0.27,-0.2701,-0.2703,-0.2775,-0.2734,-0.2807,-0.2778,-0.2747,-0.277,-0.2767,-0.2754,-0.2756,-0.2781,-0.2827,-0.2826,-0.2765,-0.2766,-0.2767,-0.2768,0,0,0,0,0,0,0,-0.2595,-0.2608,-0.2738,-0.2701,-0.2704,-0.2712,-0.272,-0.2748,-0.2762,-0.2749,-0.2748,-0.2763,-0.2754,-0.2779,-0.278,-0.2826,-0.2765,-0.2767,-0.2768,-0.2769,-0.2897,-0.2899,0,0,0,0,0,0,-0.2588,-0.2603,-0.2734,-0.2741,-0.2646,-0.2717,-0.2727,-0.2753,-0.2764,-0.2764,-0.2766,-0.2762,-0.2777,-0.2778,-0.2779,-0.2852,-0.2767,-0.2769,-0.277,-0.2895,-0.2898,-0.29,0,0,0,0,0,0,-0.2584,-0.2599,-0.273,-0.2674,-0.2692,-0.2723,-0.2753,-0.2757,-0.2788,-0.2778,-0.2775,-0.2793,-0.2775,-0.2776,-0.2816,-0.285,-0.277,-0.2772,-0.2892,-0.2896,-0.2899,-0.3002,0,0,0,0,0,0,-0.2579,-0.2597,-0.2623,-0.2675,-0.2695,-0.2803,-0.2756,-0.2761,-0.2802,-0.2798,-0.2801,-0.2796,-0.2773,-0.2814,-0.2818,-0.2852,-0.2773,-0.289,-0.2894,-0.2898,-0.2996,-0.3009,-0.3019,0,0,0,0,0,-0.2572,-0.2637,-0.2624,-0.264,-0.2726,-0.2805,-0.2818,-0.2827,-0.2806,-0.284,-0.2835,-0.2796,-0.2841,-0.2818,-0.2823,-0.2857,-0.2888,-0.2893,-0.2898,-0.2991,-0.3006,-0.3019,0,0,0,0,0,0,-0.2585,-0.2642,-0.2628,-0.2708,-0.275,-0.2801,-0.2846,-0.2847,-0.2877,-0.2879,-0.284,-0.2838,-0.2883,-0.2865,-0.284,-0.2906,-0.2853,-0.286,-0.2922,-0.2937,-0.2948,-0.296,-0.2775,0,0,0,0,0,-0.2596,-0.2641,-0.2695,-0.275,-0.2783,-0.2813,-0.2848,-0.2867,-0.2898,-0.2909,-0.2886,-0.2886,-0.2913,-0.2918,-0.2932,-0.2983,-0.2916,-0.3003,-0.3015,-0.3025,-0.3039,-0.2942,-0.2945,-0.2916,-0.2916,-0.2916,0,0,-0.2591,-0.2648,-0.2658,-0.2752,-0.2787,-0.2835,-0.2828,-0.2911,-0.2945,-0.2905,-0.2929,-0.2934,-0.2938,-0.2985,-0.3002,-0.2971,-0.3005,-0.3031,-0.304,-0.3048,-0.2947,-0.295,-0.2952,-0.292,-0.2919,-0.2919,0,0,-0.2626,-0.2683,-0.2723,-0.2738,-0.2819,-0.289,-0.2915,-0.2969,-0.2995,-0.3045,-0.3018,-0.3042,-0.3063,-0.3067,-0.3078,-0.3168,-0.3073,-0.3171,-0.3237,-0.3144,-0.3145,-0.3144,-0.308,-0.3073,-0.3171,-0.3171,-0.3171,0,-0.2602,-0.2674,-0.2748,-0.2765,-0.279,-0.2907,-0.2944,-0.3012,-0.3057,-0.3037,-0.3061,-0.3081,-0.3102,-0.3144,-0.3199,-0.3194,-0.3128,-0.3183,-0.3156,-0.3154,-0.3151,-0.3086,-0.3076,-0.3176,-0.3176,-0.3175,-0.3175,0,-0.2629,-0.2666,-0.2702,-0.2765,-0.2827,-0.2892,-0.2987,-0.3026,-0.3088,-0.3094,-0.314,-0.3207,-0.3188,-0.3231,-0.3267,-0.3279,-0.3235,-0.3181,-0.3112,-0.316,-0.3089,-0.3077,-0.3184,-0.3182,-0.3181,-0.3179,0,0,-0.2596,-0.2698,-0.269,-0.2707,-0.2826,-0.2889,-0.2963,-0.3042,-0.3055,-0.3121,-0.3118,-0.3238,-0.3243,-0.3264,-0.3313,-0.3305,-0.3281,-0.3268,-0.326,-0.3193,-0.3085,-0.2998,-0.2976,-0.3203,-0.3201,-0.32,-0.3046,0,-0.2582,-0.262,-0.2698,-0.2751,-0.2792,-0.2867,-0.2929,-0.2987,-0.3067,-0.3087,-0.3163,-0.3212,-0.3271,-0.3316,-0.3311,-0.3293,-0.3253,-0.3329,-0.306,-0.3053,-0.2958,-0.296,-0.2768,-0.2609,-0.3034,-0.3032,-0.3031,0,-0.2563,-0.2608,-0.2643,-0.274,-0.2765,-0.2815,-0.291,-0.2985,-0.3027,-0.3054,-0.3086,-0.3149,-0.3214,-0.3265,-0.3204,-0.3242,-0.3178,-0.3161,-0.315,-0.3024,-0.2943,-0.2628,-0.257,-0.301,-0.3012,-0.3013,-0.3015,0,-0.2505,-0.2576,-0.263,-0.2622,-0.2746,-0.2759,-0.2858,-0.2916,-0.2962,-0.3036,-0.3047,-0.31,-0.3139,-0.3094,-0.3097,-0.3127,-0.3,-0.2988,-0.2838,-0.2831,-0.2594,-0.2569,-0.2888,-0.2888,-0.2888,-0.2889,-0.2889,0,-0.2454,-0.2478,-0.2587,-0.257,-0.2634,-0.2729,-0.2788,-0.2845,-0.2922,-0.2935,-0.3041,-0.3064,-0.3094,-0.3049,-0.3042,-0.2904,-0.2904,-0.2851,-0.2777,-0.263,-0.261,-0.29,-0.2904,-0.2883,-0.2884,-0.2885,-0.2886,0,-0.2336,-0.2419,-0.246,-0.2559,-0.2599,-0.2625,-0.2736,-0.2748,-0.285,-0.2881,-0.2909,-0.2972,-0.291,-0.2922,-0.2832,-0.2786,-0.2702,-0.2634,-0.2493,-0.2407,-0.2617,-0.2628,-0.245,-0.2445,-0.2441,-0.2438,-0.2435,0,-0.2297,-0.2284,-0.2387,-0.2412,-0.245,-0.2509,-0.2536,-0.2674,-0.2696,-0.2803,-0.2799,-0.2791,-0.2724,-0.2591,-0.2523,-0.2419,-0.2536,-0.2185,-0.2219,-0.2622,-0.2567,-0.2585,-0.2601,-0.1949,-0.1942,-0.1937,-0.1933,0,-0.2163,-0.2182,-0.2213,-0.2242,-0.2287,-0.2329,-0.2394,-0.2408,-0.2553,-0.2573,-0.2563,-0.253,-0.2424,-0.2228,-0.2132,-0.2066,-0.2207,-0.2073,-0.2449,-0.2112,-0.2141,-0.2092,-0.2125,-0.1886,-0.189,-0.1894,-0.1896,-0.1898,-0.2038,-0.202,-0.2046,-0.2065,-0.2118,-0.2131,-0.2112,-0.2177,-0.22,-0.2215,-0.2274,-0.2153,-0.2114,-0.1858,-0.1755,-0.1699,-0.1859,-0.1797,-0.1815,-0.1839,-0.1831,-0.1853,-0.1543,-0.1546,-0.1548,-0.155,-0.1552,0,-0.1829,-0.1846,-0.1859,-0.1896,-0.1874,-0.196,-0.199,-0.1937,-0.1889,-0.1911,-0.1864,-0.1651,-0.1505,-0.1492,-0.132,-0.1291,-0.1307,-0.1251,-0.1274,-0.132,-0.1361,-0.1333,-0.0911,-0.0909,-0.0907,-0.0906,0,0,-0.1713,-0.168,-0.1693,-0.1642,-0.1664,-0.159,-0.1573,-0.1522,-0.1499,-0.14,-0.1338,-0.1411,-0.1422,-0.1167,-0.1108,-0.0975,-0.114,-0.0925,-0.1435,-0.1505,-0.1545,-0.1664,-0.1669,0,0,0,0,0]},{"header":{"parameterUnit":"m.s-1","parameterCategory":2,"la1":30.2991,"la2":30.254,"lo1":-89.0895,"lo2":-89.0444,"dy":0.0017,"dx":0.0017,"nx":28,"ny":28,"refTime":"2024-12-18T09:00:00:Z","depth":"2","parameterNumber":3,"parameterNumberName":"V-component_of_CURRENTS"},"data":[0,0,0,0,0,0,0,0,0,0,0,0,0,0,0,0,0,0,0,0,0,0,0,0,0,0,0,0,0,0,0,0,0,0,0,0,0,0,0,0,0,0,0,0,0,0,0,0,0,0,0,0,0,0,0,0,0,0,-0.0574,-0.0573,0,-0.0452,-0.0451,-0.045,-0.0387,-0.0386,-0.0386,-0.0385,-0.0198,-0.0194,-0.019,0,0,0,0,0,0,0,0,0,0,0,0,0,-0.0649,-0.0649,-0.0574,-0.0572,-0.057,-0.0452,-0.0451,-0.045,-0.0387,-0.0386,-0.0386,-0.0385,-0.02,-0.0195,-0.0189,0,0,0,0,0,0,0,0,0,0,0,0,0,-0.0586,-0.0649,-0.0575,-0.0521,-0.0514,-0.0452,-0.0451,-0.045,-0.0387,-0.0386,-0.0386,-0.0385,-0.0201,-0.0195,-0.0188,-0.0165,0,0,-0.0168,-0.0165,0,0,0,0,0,0,0,0,-0.059,-0.0584,-0.0531,-0.0524,-0.0517,-0.0429,-0.0408,-0.0349,-0.0388,-0.0442,-0.0385,-0.0384,-0.0266,-0.0254,-0.0242,-0.0156,-0.0148,-0.0168,-0.0164,-0.0161,-0.0159,0,0,0,0,0,0,0,-0.0595,-0.0588,-0.0532,-0.0528,-0.052,-0.0466,-0.0458,-0.0397,-0.0364,-0.0437,-0.043,-0.0408,-0.0263,-0.0249,-0.0237,-0.0146,-0.0168,-0.0162,-0.0158,-0.0155,-0.0022,-0.0023,0,0,0,0,0,0,-0.0605,-0.0593,-0.0535,-0.0527,-0.0545,-0.0465,-0.0456,-0.0463,-0.0365,-0.0349,-0.0409,-0.0405,-0.0261,-0.0245,-0.023,-0.0157,-0.0161,-0.0154,-0.0151,-0.0022,-0.0022,-0.0023,0,0,0,0,0,0,-0.0608,-0.0602,-0.054,-0.0551,-0.0539,-0.0465,-0.0473,-0.0461,-0.0438,-0.0344,-0.0327,-0.0397,-0.0259,-0.0239,-0.0167,-0.0151,-0.0152,-0.0145,-0.0021,-0.0022,-0.0022,-0.0036,0,0,0,0,0,0,-0.0611,-0.0605,-0.0615,-0.0553,-0.0538,-0.0505,-0.0472,-0.0459,-0.0423,-0.0417,-0.0328,-0.031,-0.0257,-0.0177,-0.016,-0.0141,-0.014,-0.0021,-0.0021,-0.0022,-0.0035,-0.0037,-0.0039,0,0,0,0,0,-0.0614,-0.0637,-0.0618,-0.0609,-0.0556,-0.0504,-0.0493,-0.044,-0.0423,-0.0417,-0.0351,-0.0312,-0.0171,-0.0171,-0.0152,-0.0131,-0.002,-0.0021,-0.0022,-0.0034,-0.0036,-0.0038,0,0,0,0,0,0,-0.0674,-0.063,-0.0608,-0.0616,-0.0561,-0.0491,-0.0481,-0.0443,-0.039,-0.0382,-0.0303,-0.028,-0.0211,-0.018,-0.0182,-0.0102,-0.0096,-0.0093,-0.0111,-0.0113,-0.0115,-0.0105,-0.0135,0,0,0,0,0,-0.0693,-0.07,-0.0635,-0.0638,-0.0618,-0.0551,-0.0523,-0.0484,-0.0424,-0.0401,-0.0337,-0.0273,-0.0203,-0.0166,-0.0107,-0.0057,-0.002,-0.0039,-0.0041,-0.0042,-0.0025,0.0038,0.0045,-0.0026,-0.0026,-0.0026,0,0,-0.0719,-0.069,-0.0696,-0.065,-0.061,-0.0585,-0.0534,-0.0497,-0.0464,-0.0387,-0.0335,-0.0269,-0.0192,-0.013,-0.0099,-0.0098,-0.001,-0.0044,-0.0045,-0.0026,0.0038,0.0045,0.0052,-0.0027,-0.0027,-0.0026,0,0,-0.076,-0.0748,-0.076,-0.0731,-0.0668,-0.0612,-0.0602,-0.0532,-0.049,-0.043,-0.0361,-0.0282,-0.0204,-0.0126,-0.008,-0.0061,-0.0019,-0.0063,-0.0057,0.0003,0.0011,0.0018,0.0051,0.0061,-0.0067,-0.0067,-0.0067,0,-0.0791,-0.0793,-0.0751,-0.0753,-0.0724,-0.0629,-0.0619,-0.0566,-0.0477,-0.0451,-0.0421,-0.0267,-0.0194,-0.0087,-0.0074,-0.0058,-0.0034,-0.0049,0.0004,0.0012,0.0019,0.0052,0.0063,-0.0068,-0.0068,-0.0068,-0.0068,0,-0.0839,-0.0837,-0.0842,-0.0809,-0.0773,-0.075,-0.0664,-0.0622,-0.0556,-0.0507,-0.0399,-0.0273,-0.0187,-0.0148,-0.0093,-0.0004,-0.0009,-0.0001,0.0015,0.0026,0.0059,0.0071,-0.0069,-0.0069,-0.0069,-0.0068,0,0,-0.0912,-0.088,-0.0882,-0.0871,-0.08,-0.0773,-0.0719,-0.0642,-0.0607,-0.0507,-0.0441,-0.0289,-0.0228,-0.0168,-0.0073,0.0008,0.0087,0.0024,0.0028,0.0067,0.0199,0.0228,0.0244,0.01,0.0102,0.0104,0.0193,0,-0.0948,-0.0962,-0.0926,-0.0915,-0.0904,-0.0825,-0.0776,-0.0707,-0.0626,-0.0549,-0.0403,-0.0308,-0.0234,-0.0164,-0.0073,0.0055,0.0121,0.0061,0.0175,0.0179,0.0213,0.0261,0.0232,0.0313,0.0205,0.0207,0.0209,0,-0.1006,-0.0992,-0.1,-0.0949,-0.0939,-0.092,-0.0829,-0.0774,-0.0661,-0.0601,-0.0488,-0.0383,-0.0218,-0.0158,0.0056,0.0007,0.0099,0.0195,0.02,0.0249,0.0232,0.0289,0.0339,0.023,0.0228,0.0227,0.0225,0,-0.1071,-0.1046,-0.1043,-0.1039,-0.0969,-0.0956,-0.0903,-0.0812,-0.0761,-0.0632,-0.0584,-0.0402,-0.0285,-0.0134,0.0065,0.0052,0.0289,0.028,0.0392,0.0393,0.0406,0.0405,0.0419,0.0419,0.0419,0.0418,0.0418,0,-0.1131,-0.1131,-0.108,-0.1095,-0.1073,-0.1014,-0.098,-0.0913,-0.0807,-0.0747,-0.0613,-0.0496,-0.0271,-0.0109,0.0049,0.0267,0.0262,0.0419,0.0436,0.0396,0.0393,0.0351,0.0342,0.0422,0.0421,0.042,0.042,0,-0.1207,-0.1183,-0.1179,-0.1126,-0.1116,-0.1104,-0.1043,-0.101,-0.0912,-0.0815,-0.0772,-0.057,-0.0352,-0.0136,0.0127,0.0246,0.045,0.0518,0.045,0.0459,0.0507,0.0495,0.0643,0.0645,0.0647,0.0649,0.065,0,-0.1251,-0.1253,-0.1224,-0.1224,-0.1206,-0.1182,-0.1161,-0.1073,-0.1032,-0.0842,-0.0793,-0.057,-0.0385,-0.0011,0.0247,0.0509,0.0512,0.0615,0.0608,0.0538,0.0539,0.0524,0.0511,0.0602,0.0603,0.0603,0.0604,0,-0.1296,-0.1284,-0.1276,-0.1284,-0.1281,-0.1266,-0.1233,-0.1218,-0.1085,-0.0975,-0.0783,-0.0618,-0.0261,0.0046,0.0366,0.0517,0.0572,0.0636,0.0606,0.055,0.0507,0.0505,0.0492,0.061,0.0609,0.0609,0.0608,0.0608,-0.1317,-0.1315,-0.1308,-0.1312,-0.1324,-0.1327,-0.1315,-0.1252,-0.1158,-0.0957,-0.0794,-0.0513,-0.0238,0.0238,0.0463,0.066,0.0661,0.0707,0.0702,0.0697,0.0676,0.064,0.0762,0.0762,0.0762,0.0762,0.0763,0,-0.1304,-0.1309,-0.1327,-0.1334,-0.1367,-0.1361,-0.1333,-0.1276,-0.1157,-0.0944,-0.0723,-0.0368,-0.0039,0.0233,0.0554,0.0744,0.0717,0.0763,0.0692,0.0686,0.0681,0.0657,0.0739,0.0739,0.074,0.074,0,0,-0.1289,-0.1294,-0.1298,-0.135,-0.1376,-0.1383,-0.1365,-0.1248,-0.1097,-0.0847,-0.0627,-0.0353,-0.0023,0.0201,0.0439,0.0596,0.0585,0.0605,0.0607,0.049,0.0482,0.0637,0.0593,0,0,0,0,0]}],[{"header":{"parameterUnit":"m.s-1","parameterCategory":2,"la1":30.2991,"la2":30.254,"lo1":-89.0895,"lo2":-89.0444,"dy":0.0017,"dx":0.0017,"nx":28,"ny":28,"refTime":"2024-12-18T09:00:00:Z","depth":"4","parameterNumber":2,"parameterNumberName":"U-component_of_CURRENTS"},"data":[0,0,0,0,0,0,0,0,0,0,0,0,0,0,0,0,0,0,0,0,0,0,0,0,0,0,0,0,0,0,0,0,0,0,0,0,0,0,0,0,0,0,0,0,0,0,0,0,0,0,0,0,0,0,0,0,0,0,-0.1513,-0.1514,0,-0.1586,-0.1587,-0.1587,-0.1604,-0.1604,-0.1604,-0.1603,-0.1707,-0.171,-0.1713,0,0,0,0,0,0,0,0,0,0,0,0,0,-0.1389,-0.1391,-0.1512,-0.1514,-0.1515,-0.1586,-0.1587,-0.1587,-0.1604,-0.1604,-0.1604,-0.1603,-0.1706,-0.171,-0.1713,0,0,0,0,0,0,0,0,0,0,0,0,0,-0.1446,-0.1392,-0.1512,-0.1536,-0.1539,-0.1586,-0.1587,-0.1587,-0.1604,-0.1604,-0.1603,-0.1603,-0.1705,-0.1709,-0.1714,-0.1742,0,0,-0.1727,-0.1728,0,0,0,0,0,0,0,0,-0.1443,-0.145,-0.1531,-0.1534,-0.1538,-0.159,-0.1582,-0.1642,-0.1604,-0.1574,-0.1603,-0.1603,-0.1674,-0.1681,-0.1688,-0.1746,-0.1751,-0.1727,-0.173,-0.1731,-0.1733,0,0,0,0,0,0,0,-0.1439,-0.1447,-0.1536,-0.1532,-0.1537,-0.1544,-0.1551,-0.1593,-0.162,-0.1576,-0.1579,-0.1595,-0.1676,-0.1683,-0.169,-0.1752,-0.1727,-0.1731,-0.1733,-0.1735,-0.188,-0.1881,0,0,0,0,0,0,-0.144,-0.1443,-0.1534,-0.1539,-0.1495,-0.1547,-0.1555,-0.1569,-0.1619,-0.1628,-0.1595,-0.1596,-0.1676,-0.1685,-0.1694,-0.1772,-0.1731,-0.1735,-0.1738,-0.1879,-0.188,-0.1882,0,0,0,0,0,0,-0.1437,-0.1447,-0.1531,-0.1497,-0.1509,-0.1549,-0.1565,-0.1571,-0.1611,-0.1634,-0.1642,-0.1634,-0.1676,-0.1688,-0.1745,-0.1775,-0.1737,-0.1741,-0.1877,-0.1879,-0.1881,-0.1902,0,0,0,0,0,0,-0.1433,-0.1446,-0.1463,-0.1497,-0.1511,-0.1573,-0.1566,-0.1573,-0.1622,-0.1624,-0.167,-0.1677,-0.1677,-0.1738,-0.1749,-0.178,-0.1744,-0.1876,-0.1878,-0.188,-0.19,-0.1904,-0.1908,0,0,0,0,0,-0.1428,-0.1443,-0.1463,-0.1475,-0.1531,-0.1575,-0.1583,-0.1607,-0.1624,-0.1643,-0.1671,-0.1678,-0.1761,-0.1743,-0.1755,-0.1788,-0.1874,-0.1877,-0.188,-0.1898,-0.1903,-0.1908,0,0,0,0,0,0,-0.1398,-0.1448,-0.147,-0.15,-0.1546,-0.158,-0.1601,-0.1632,-0.167,-0.1678,-0.1699,-0.1708,-0.1769,-0.178,-0.1759,-0.1837,-0.1819,-0.1824,-0.1828,-0.1833,-0.1838,-0.1824,-0.1748,0,0,0,0,0,-0.1403,-0.1429,-0.148,-0.1511,-0.1531,-0.1578,-0.1605,-0.163,-0.1667,-0.1685,-0.1721,-0.1755,-0.1787,-0.1811,-0.1841,-0.189,-0.1884,-0.1919,-0.1923,-0.1927,-0.1924,-0.193,-0.1934,-0.1892,-0.1892,-0.1891,0,0,-0.14,-0.1434,-0.1449,-0.1507,-0.154,-0.1573,-0.1592,-0.1642,-0.1673,-0.1692,-0.1749,-0.1782,-0.1806,-0.1849,-0.1878,-0.1865,-0.1939,-0.193,-0.1933,-0.1929,-0.1933,-0.1937,-0.194,-0.1894,-0.1893,-0.1893,0,0,-0.1405,-0.144,-0.1463,-0.1503,-0.1568,-0.159,-0.1616,-0.1676,-0.1703,-0.1767,-0.178,-0.1828,-0.1893,-0.1899,-0.1913,-0.1965,-0.1966,-0.199,-0.2,-0.2006,-0.2009,-0.2011,-0.2016,-0.2019,-0.1987,-0.1987,-0.1987,0,-0.14,-0.1444,-0.1479,-0.1516,-0.1555,-0.1603,-0.1643,-0.167,-0.1745,-0.178,-0.179,-0.1887,-0.1908,-0.1948,-0.1957,-0.1975,-0.1979,-0.1975,-0.2009,-0.2012,-0.2014,-0.2018,-0.2021,-0.1989,-0.1988,-0.1988,-0.1988,0,-0.1423,-0.1469,-0.1487,-0.1546,-0.1585,-0.1631,-0.1677,-0.1726,-0.1776,-0.1815,-0.1893,-0.1916,-0.1974,-0.1988,-0.1988,-0.2024,-0.2023,-0.2016,-0.199,-0.2019,-0.2022,-0.2024,-0.199,-0.199,-0.199,-0.1989,0,0,-0.1379,-0.1483,-0.1496,-0.1538,-0.1613,-0.1647,-0.1698,-0.1765,-0.1817,-0.1875,-0.1941,-0.1981,-0.2015,-0.2031,-0.2044,-0.204,-0.2058,-0.2036,-0.2036,-0.203,-0.2076,-0.1937,-0.1926,-0.2059,-0.206,-0.206,-0.2074,0,-0.1391,-0.1474,-0.1523,-0.1594,-0.163,-0.1697,-0.1745,-0.1812,-0.1869,-0.1938,-0.1969,-0.2032,-0.2023,-0.2062,-0.2059,-0.2066,-0.2065,-0.2055,-0.2058,-0.2057,-0.1921,-0.1923,-0.2061,-0.2075,-0.2076,-0.2076,-0.2076,0,-0.139,-0.1448,-0.1528,-0.1635,-0.166,-0.1709,-0.1809,-0.1863,-0.195,-0.2004,-0.2062,-0.2093,-0.2118,-0.2101,-0.2107,-0.2105,-0.2095,-0.2082,-0.2082,-0.1943,-0.1921,-0.204,-0.208,-0.208,-0.208,-0.2079,-0.2079,0,-0.1334,-0.1449,-0.1519,-0.1555,-0.1671,-0.1728,-0.1796,-0.1891,-0.195,-0.2044,-0.2095,-0.2138,-0.2169,-0.2156,-0.2136,-0.2133,-0.2126,-0.212,-0.1983,-0.1974,-0.2088,-0.2085,-0.2115,-0.2115,-0.2115,-0.2114,-0.2114,0,-0.1312,-0.1369,-0.1507,-0.154,-0.1627,-0.1718,-0.1819,-0.189,-0.2,-0.2062,-0.2124,-0.2155,-0.2183,-0.2183,-0.2156,-0.2065,-0.2145,-0.1975,-0.196,-0.2099,-0.2097,-0.2089,-0.2086,-0.2115,-0.2115,-0.2115,-0.2115,0,-0.123,-0.1332,-0.1403,-0.1545,-0.1599,-0.1657,-0.1827,-0.1894,-0.2001,-0.2077,-0.2107,-0.218,-0.2163,-0.2165,-0.215,-0.2074,-0.2015,-0.1969,-0.2122,-0.2117,-0.186,-0.1858,-0.1811,-0.1806,-0.1802,-0.1798,-0.1795,0,-0.119,-0.1225,-0.1379,-0.1438,-0.1509,-0.1629,-0.1716,-0.187,-0.1934,-0.2065,-0.2079,-0.2116,-0.2138,-0.1991,-0.2019,-0.1948,-0.1919,-0.1892,-0.1857,-0.1834,-0.1826,-0.1831,-0.1834,-0.1789,-0.1787,-0.1786,-0.1785,0,-0.1095,-0.1167,-0.1236,-0.1349,-0.1451,-0.1561,-0.1691,-0.1729,-0.1888,-0.1999,-0.198,-0.1953,-0.1932,-0.189,-0.1847,-0.1801,-0.1906,-0.1847,-0.1855,-0.1823,-0.1807,-0.1803,-0.1812,-0.1771,-0.1773,-0.1774,-0.1775,0,-0.1019,-0.1053,-0.1158,-0.1248,-0.1368,-0.1446,-0.1542,-0.1618,-0.1696,-0.1836,-0.1826,-0.1851,-0.1917,-0.1816,-0.1781,-0.1713,-0.1679,-0.162,-0.1639,-0.1656,-0.1593,-0.155,-0.1409,0,0,0,0,0,-0.0929,-0.0983,-0.1058,-0.1161,-0.1267,-0.1338,-0.1502,-0.1601,-0.1752,-0.1686,-0.175,-0.1714,-0.1646,-0.1668,-0.1558,-0.1712,-0.1694,-0.1581,-0.1639,-0.1689,-0.1706,-0.1644,0,0,0,0,0,0,-0.0882,-0.096,-0.1014,-0.1053,-0.1101,-0.1216,-0.1313,-0.1428,-0.1406,-0.1542,-0.1503,-0.1594,-0.1544,-0.1655,-0.1509,-0.1515,-0.1515,-0.1609,-0.1604,-0.168,-0.1695,-0.1709,-0.1651,0,0,0,0,0]},{"header":{"parameterUnit":"m.s-1","parameterCategory":2,"la1":30.2991,"la2":30.254,"lo1":-89.0895,"lo2":-89.0444,"dy":0.0017,"dx":0.0017,"nx":28,"ny":28,"refTime":"2024-12-18T09:00:00:Z","depth":"4","parameterNumber":3,"parameterNumberName":"V-component_of_CURRENTS"},"data":[0,0,0,0,0,0,0,0,0,0,0,0,0,0,0,0,0,0,0,0,0,0,0,0,0,0,0,0,0,0,0,0,0,0,0,0,0,0,0,0,0,0,0,0,0,0,0,0,0,0,0,0,0,0,0,0,0,0,-0.048,-0.048,0,-0.0452,-0.0452,-0.0452,-0.0426,-0.0426,-0.0425,-0.0425,-0.0333,-0.0331,-0.0329,0,0,0,0,0,0,0,0,0,0,0,0,0,-0.0478,-0.0479,-0.048,-0.048,-0.0479,-0.0452,-0.0452,-0.0452,-0.0426,-0.0426,-0.0425,-0.0424,-0.0333,-0.0331,-0.0329,0,0,0,0,0,0,0,0,0,0,0,0,0,-0.0471,-0.0479,-0.048,-0.0461,-0.0459,-0.0452,-0.0452,-0.0452,-0.0427,-0.0426,-0.0425,-0.0424,-0.0334,-0.0331,-0.0328,-0.0328,0,0,-0.032,-0.0318,0,0,0,0,0,0,0,0,-0.0471,-0.0471,-0.0464,-0.0462,-0.046,-0.0439,-0.0417,-0.0406,-0.0427,-0.0442,-0.0425,-0.0424,-0.0361,-0.0356,-0.0358,-0.0324,-0.032,-0.0319,-0.0318,-0.0316,-0.0315,0,0,0,0,0,0,0,-0.0472,-0.0472,-0.0472,-0.0464,-0.0461,-0.0442,-0.044,-0.0416,-0.0408,-0.0441,-0.0438,-0.043,-0.036,-0.0361,-0.0355,-0.0318,-0.0319,-0.0317,-0.0315,-0.0314,-0.0288,-0.0289,0,0,0,0,0,0,-0.0472,-0.0473,-0.0473,-0.0471,-0.046,-0.0443,-0.0441,-0.0449,-0.0409,-0.0402,-0.0431,-0.0429,-0.0366,-0.0358,-0.0352,-0.0343,-0.0316,-0.0314,-0.0312,-0.0287,-0.0288,-0.0289,0,0,0,0,0,0,-0.0473,-0.0473,-0.0474,-0.0468,-0.0466,-0.0443,-0.0453,-0.0449,-0.0449,-0.0402,-0.0394,-0.0434,-0.0365,-0.0356,-0.0332,-0.0339,-0.0312,-0.031,-0.0286,-0.0287,-0.0289,-0.0329,0,0,0,0,0,0,-0.0473,-0.0474,-0.049,-0.0468,-0.0466,-0.0476,-0.0453,-0.0449,-0.0444,-0.0441,-0.0402,-0.0393,-0.0364,-0.0336,-0.0329,-0.0335,-0.0307,-0.0284,-0.0286,-0.0288,-0.0327,-0.0332,-0.0336,0,0,0,0,0,-0.0473,-0.0501,-0.0492,-0.0492,-0.0487,-0.0477,-0.0475,-0.0457,-0.0445,-0.0453,-0.0423,-0.0394,-0.0344,-0.0335,-0.0326,-0.0331,-0.0283,-0.0286,-0.0288,-0.0324,-0.0331,-0.0336,0,0,0,0,0,0,-0.0511,-0.05,-0.0489,-0.0513,-0.0496,-0.0471,-0.0484,-0.0463,-0.0448,-0.0446,-0.04,-0.0389,-0.0373,-0.0352,-0.0343,-0.0333,-0.0312,-0.0313,-0.0343,-0.0348,-0.0353,-0.035,-0.0305,0,0,0,0,0,-0.0526,-0.0543,-0.052,-0.0537,-0.0536,-0.051,-0.0506,-0.0489,-0.0467,-0.0461,-0.0432,-0.0404,-0.0378,-0.0362,-0.0341,-0.0331,-0.0277,-0.0333,-0.0338,-0.0342,-0.0335,-0.0265,-0.0262,-0.0297,-0.0297,-0.0297,0,0,-0.0543,-0.0539,-0.0549,-0.0545,-0.0537,-0.0537,-0.0508,-0.0507,-0.0503,-0.0452,-0.0449,-0.0419,-0.038,-0.0369,-0.0361,-0.035,-0.0305,-0.0345,-0.0348,-0.0339,-0.0267,-0.0263,-0.0259,-0.0298,-0.0298,-0.0298,0,0,-0.0579,-0.0587,-0.0609,-0.0601,-0.0587,-0.0568,-0.0568,-0.0547,-0.0539,-0.0526,-0.0489,-0.046,-0.0432,-0.0399,-0.0379,-0.0399,-0.0334,-0.0404,-0.042,-0.0352,-0.0348,-0.0343,-0.0266,-0.0254,-0.0405,-0.0405,-0.0405,0,-0.06,-0.062,-0.0612,-0.0625,-0.0618,-0.0583,-0.0591,-0.0582,-0.0552,-0.0537,-0.0532,-0.0471,-0.0443,-0.0403,-0.0416,-0.0407,-0.0355,-0.0397,-0.0356,-0.035,-0.0345,-0.0266,-0.0252,-0.0407,-0.0407,-0.0407,-0.0407,0,-0.064,-0.0657,-0.0671,-0.0672,-0.0667,-0.0671,-0.0646,-0.0641,-0.0621,-0.0592,-0.0559,-0.0518,-0.0471,-0.047,-0.0448,-0.0404,-0.0374,-0.0368,-0.0334,-0.0343,-0.026,-0.0245,-0.0411,-0.041,-0.0409,-0.0409,0,0,-0.0679,-0.0696,-0.0701,-0.0704,-0.0691,-0.0687,-0.0686,-0.0659,-0.0643,-0.0618,-0.0583,-0.055,-0.0513,-0.0488,-0.0454,-0.0406,-0.0328,-0.0378,-0.0374,-0.0289,-0.0163,-0.018,-0.0164,-0.031,-0.0308,-0.0307,-0.0117,0,-0.0707,-0.074,-0.0736,-0.0753,-0.0762,-0.0734,-0.0729,-0.07,-0.0668,-0.063,-0.0576,-0.0536,-0.0525,-0.0497,-0.0446,-0.0355,-0.0292,-0.0379,-0.0177,-0.017,-0.0174,-0.0149,-0.03,-0.0106,-0.0102,-0.0099,-0.0098,0,-0.0743,-0.0753,-0.0783,-0.078,-0.0783,-0.0788,-0.0757,-0.0747,-0.0686,-0.0655,-0.0598,-0.0547,-0.0468,-0.0463,-0.0298,-0.0353,-0.0262,-0.0194,-0.0185,-0.0174,-0.016,-0.0097,-0.007,-0.0072,-0.0074,-0.0076,-0.0077,0,-0.0765,-0.0786,-0.0808,-0.0811,-0.0804,-0.081,-0.0802,-0.0757,-0.074,-0.0665,-0.0626,-0.0528,-0.0463,-0.0351,-0.0221,-0.0248,-0.003,-0.0043,0.0036,0.0037,0.0015,0.0009,0.0085,0.0085,0.0084,0.0084,0.0083,0,-0.079,-0.081,-0.0826,-0.084,-0.0854,-0.0839,-0.0841,-0.0812,-0.0759,-0.0717,-0.0641,-0.0573,-0.0433,-0.03,-0.0193,-0.0027,0.0004,0.005,0.0086,-0.0008,-0.0019,0.0027,0.0018,0.0091,0.009,0.0088,0.0087,0,-0.081,-0.0827,-0.085,-0.0861,-0.0873,-0.088,-0.0884,-0.0876,-0.0816,-0.0753,-0.0726,-0.0581,-0.0407,-0.0259,-0.0048,0.0015,0.0169,0.0222,0.0132,0.0158,0.0188,0.0174,0.0334,0.0335,0.0336,0.0337,0.0338,0,-0.0818,-0.0839,-0.0877,-0.09,-0.0914,-0.0931,-0.0947,-0.0912,-0.0891,-0.0752,-0.0714,-0.0536,-0.0428,-0.0123,0.0009,0.0234,0.0242,0.0325,0.0229,0.0195,0.0215,0.0199,0.0185,0.0339,0.0339,0.0339,0.034,0,-0.0819,-0.0847,-0.0865,-0.0923,-0.0958,-0.0984,-0.0997,-0.098,-0.0908,-0.0854,-0.0668,-0.0505,-0.0301,-0.0105,0.0073,0.0219,0.0265,0.0334,0.0332,0.0242,0.0203,0.0218,0.0202,0.0343,0.0342,0.0342,0.0342,0,-0.0815,-0.0832,-0.0878,-0.0922,-0.0981,-0.1014,-0.1019,-0.0967,-0.0926,-0.0766,-0.0699,-0.0471,-0.0332,-0.0108,0.0054,0.0195,0.0208,0.0224,0.0228,0.0226,0.0109,0.0038,0.0175,0,0,0,0,0,-0.0794,-0.0824,-0.0874,-0.0923,-0.0993,-0.1027,-0.104,-0.1029,-0.0957,-0.0826,-0.0754,-0.0557,-0.0279,-0.0156,-0.0015,0.0023,0.0196,0.0187,0.0207,0.0359,0.0356,0.0231,0,0,0,0,0,0,-0.0779,-0.0827,-0.086,-0.0927,-0.0971,-0.1034,-0.1048,-0.1002,-0.092,-0.0818,-0.0667,-0.0546,-0.0286,-0.0352,-0.0015,0.0029,0.0053,0.0327,0.0329,0.0361,0.0358,0.0355,0.0225,0,0,0,0,0]}]]